Tracking 19562 objects as of 25-Mar-2019
HD Live streaming from Space Station
objects crossing your sky now

GLOBALSTAR M079

Track GLOBALSTAR M079 now!
10-day predictions
GLOBALSTAR M079 is classified as:


NORAD ID: 37188
Int'l Code: 2010-054A
Perigee: 1,420.4 km
Apogee: 1,421.1 km
Inclination: 52.0 °
Period: 114.1 minutes
Semi major axis: 7791 km
RCS: 5.1171 m2 (large)
Launch date: October 19, 2010
Source: Globalstar (GLOB)
Launch site: TYURATAM MISSILE AND SPACE COMPLEX (TTMTR)
aabbcc
Your satellite tracking list
Your tracking list is empty




NASA's NSSDC Master Catalog

Two Line Element Set (TLE):
1 37188U 10054A   19083.80480155 -.00000095  00000-0  47026-4 0  9997
2 37188  52.0025 229.4792 0000419  98.1064   8.9338 12.62265700389653
Source of the keplerian elements: AFSPC